Погода в Таловке

Россия / Камчатский край     62°03′02″N   166°42′00″E
темп.,
°C
ветер,
м/с
пор.,
м/с
влажн.,
%
обл.,
%
осадки,
мм/ч
давл.,
гПа
погр.,
м
8 марта, пн
пн800:00−27с81597100 0.8 9861044
03:00−27ссз61398100 0.6 9871003
06:00−27сз41098100 1.1 987384
09:00−29з2495100 0.3 989243
12:00−27з2281100 0.3 990390
15:00−26зюз3381100 0.0 991559
18:00−29зюз2388100 0.1 99330
21:00−30юз3395100 0.0 99638
9 марта, вт
вт900:00−30ююз3497100 0.1 99982
03:00−30ююз3398100 0.1 100165
06:00−30ююз3397100 0.1 100262
09:00−28ююз4594100 0.1 1005181
12:00−26юз4686100 0.1 1006306
15:00−25юз4686100 0.0 1008453
18:00−28ююз4696100 0.0 101087
21:00−31ююз449449 0.0 101328
10 марта, ср
ср1000:00−32ююз339130 0.0 101519
03:00−32ю238952 0.0 101719
06:00−33ю228462 0.0 101919
09:00−32ю117967 0.0 102119
12:00−27ю117252 0.0 1021120
15:00−24юв117240 0.0 1021156
18:00−25в018067 0.0 102120
21:00−25в1180100 0.0 102220
11 марта, чт
чт1100:00−25всв1198100 0.1 102220
03:00−24ссв1199100 0.1 102122
06:00−27ссв1210096 0.1 102119
09:00−26ссв239774 0.0 102029
12:00−23с349569 0.0 1019134
15:00−21с449798 0.1 1017180
18:00−24с349897 0.1 101566
21:00−26с3598100 0.0 101491
12 марта, пт
пт1200:00−26с4599100 0.1 1013108
03:00−24с4699100 0.1 1010140
06:00−23с5799100 0.9 1008166
09:00−21с6898100 0.1 1005194
12:00−21с71198100 0.3 1000247
15:00−20с81299100 1.6 996277
18:00−20с71098100 3.1 995292
21:00−21с5798100 1.1 995302